Airfield :
LOGIN :

Register | Disclaimer

   EN    FR    IT 

 










Legend :    VFR   Marginal VFR   IFR   Intensive IFR   Very Intensive IFR
Visi :
Ceiling :
>= 8 km
>= 3000ft
5 to 8 km
1000 to 3000 ft
1500m to 5 km
500 to 1000 ft
800 to 1500m
200 to 500 ft
< 800m
< 200 ft
Symbols :   Thunderstorms  Fog  Heavy snow  Heavy precipitations  Wind > 20 kt
SIGMETs :     Misc.  Thunderstorms  Icing  Turbulence  Mountain Waves  Volcanic Ashes







- Airport Elevation : 5600 ft
- IATA code : SMV


LSZS - Samedan

CURRENT METAR :
  • 200720Z VRB03KT CAVOK M15/M17 Q1019 RMK B

EXPIRED METARs :
  • 200650Z VRB02KT CAVOK M14/M16 Q1019 RMK A
  • 200620Z AUTO VRB02KT 9999 NCD M13/M15 Q1019
  • 200550Z AUTO VRB02KT 9999 NSC M14/M16 Q1019
  • 200520Z AUTO VRB02KT CAVOK M14/M16 Q1019
  • 200450Z AUTO VRB03KT CAVOK M14/M16 Q1019

TAF TAF LSZS
Valid from the 20 at 06:00 until the 20 at 15:00 UTC


200525Z 2006/2015 VRB03KT CAVOK TX01/2013Z
BECMG 2006/2009 9999 SCT070
ATIS : +41 81 834 93 24
No reported NOTAMs for that airfield.



MET'MAP, your aeronautical weather chart ! - Copyright ORBIFLY December 2007 - Disclaimer

ORBIFLY MET'MAP TEAM :

Programming & Development : Alexandra Zaïnal
Concept & Development : Baudouin d'Aumeries
Co-Development & Prog : Marc-Olivier Méhu
Technical & hardware support : Manuel Goepfert

Contact : metmap@orbifly.com




SOURCES & CREDITS :

   NOAA